Regional Weather Roundup
Issued by NWS

Home | Current Version | Previous Version | Graphics & Text | Print | Product List | Glossary On
Versions: 1 2 3 4 5 6 7 8 9 10 11 12 13 14 15 16 17 18 19 20 21 22 23 24 25 26 27 28 29 30 31 32 33 34 35 36 37 38 39 40 41 42 43 44 45 46 47 48 49 50
000
ASUS43 KMKX 280821
RWRWI

WISCONSIN REGIONAL WEATHER ROUNDUP
NATIONAL WEATHER SERVICE MILWAUKEE/SULLIVAN WI
300 AM CDT SUN AUG 28 2016

NOTE: "FAIR" INDICATES FEW OR NO CLOUDS BELOW 12,000 FEET WITH NO
SIGNIFICANT WEATHER AND/OR OBSTRUCTIONS TO VISIBILITY.

WIZ001-002-006>008-014>016-023>028-280900-
NORTHWEST WISCONSIN

CITY           SKY/WX    TMP DP  RH WIND       PRES   REMARKS
SUPERIOR ARPT  FOG       57  57 100 W3        30.09S VSB 1/4
ASHLAND        CLOUDY    60  59  96 W3        30.10R
HAYWARD        CLOUDY    62  61  96 S3        30.12R
SIREN          CLOUDY    61  60  97 CALM      30.12R
CUMBERLAND     FOG       59  57  94 CALM      30.13R VSB 1/4
RICE LAKE      FOG       60  58  95 W5        30.15R VSB<1/4
CHETEK         NOT AVBL
LADYSMITH      CLOUDY    64  63  96 W5        30.14R
EAU CLAIRE     CLOUDY    63  63 100 N5        30.11S FOG
MENOMONIE      FOG       63  63  99 CALM      30.12R VSB 1/2
NEW RICHMOND   FOG       61  61 100 CALM      30.12R VSB 1/4
OSCEOLA        FOG       60  60 100 CALM      30.14S VSB 1/4
$$

WIZ003>005-009-010-017-018-280900-
NORTH CENTRAL WISCONSIN

CITY           SKY/WX    TMP DP  RH WIND       PRES   REMARKS
MANITOWISH WTR NOT AVBL
ARBOR VITAE    MOCLDY    62  60  94 W3        30.12R
WOODRUFF       MOCLDY    62  60  94 W3        30.12R
RHINELANDER    CLOUDY    63  63 100 W7        30.12R
EAGLE RIVER    CLOUDY    62  62 100 W6        30.11R
LAND O LAKES   CLOUDY    62  62  98 CALM      30.11S
PHILLIPS       CLOUDY    61  61 100 CALM      30.12R
TOMAHAWK       CLOUDY    61  60  96 CALM      30.13R
MEDFORD        CLOUDY    61  61 100 W5        30.13R FOG
MERRILL        MOCLDY    62  62 100 CALM      30.13R
$$

WIZ029-030-035-036-043>047-280900-
CENTRAL WISCONSIN

CITY           SKY/WX    TMP DP  RH WIND       PRES   REMARKS
WAUSAU         CLOUDY    63  61  93 W8        30.11R
MOSINEE        CLOUDY    63  63 100 W6        30.13S
MARSHFIELD     MOCLDY    63  61  93 W9        30.13R
STEVENS POINT  CLOUDY    63  63  98 W5        30.13R
WAUPACA        CLOUDY    65  64  98 CALM      30.13R FOG
WAUTOMA        CLOUDY    64  64 100 W5        30.13R FOG
WISC RAPIDS    CLOUDY    65  65 100 W5        30.14R FOG
CAMP DOUGLAS   CLOUDY    66  66  98 SW3       30.11S
$$

WIZ011>013-019>022-031-037>040-048>050-280900-
NORTHEAST WISCONSIN

CITY           SKY/WX    TMP DP  RH WIND       PRES   REMARKS
ANTIGO         CLOUDY    62  62  99 CALM      30.13R
SHAWANO        CLOUDY    65  63  94 SW5       30.12R FOG
OCONTO         NOT AVBL
STURGEON BAY   MOCLDY    63  63 100 W7        30.11R
GREEN BAY      CLOUDY    62  62 100 MISG      30.11R FOG
MANITOWOC      CLEAR     64  63  94 SW3       30.11R FOG
APPLETON       FOG       63  63 100 SW6       30.10R VSB 1/4
CLINTONVILLE   CLOUDY    63  63 100 W5        30.12R FOG
OSHKOSH        FOG       63  63 100 SW3       30.11R VSB 1/2
$$

WIZ032>034-041-042-053>061-280900-
SOUTHWEST WISCONSIN

CITY           SKY/WX    TMP DP  RH WIND       PRES   REMARKS
LA CROSSE      CLOUDY    68  67  96 S8        30.10S FOG
SPARTA         CLOUDY    64  64 100 CALM      30.12F FOG
VIROQUA        CLOUDY    61  61 100 CALM      30.14S VSB 1/4
BOSCOBEL       FOG       65  64  97 CALM      30.13R VSB 1/4
PRAIRIE DU CHI FOG       63  61  96 CALM      30.12S VSB 1/2
PLATTEVILLE      N/A     63  63 100 CALM      30.14R VSB 1/4
$$

WIZ056-057-062-063-064-067-068-280900-
SOUTH CENTRAL WISCONSIN

CITY           SKY/WX    TMP DP  RH WIND       PRES   REMARKS
REEDSBURG      NOT AVBL
BARABOO/DELLS  FOG       60  59  96 CALM      30.13R VSB<1/4
LONE ROCK      FOG       64  63  96 SE3       30.14R VSB 1/4
MINERAL POINT  FOG       63  63 100 CALM      30.14R VSB 1/2
MADISON        FOG       63  63 100 CALM      30.12S VSB 1/4
MIDDLETON      CLOUDY    61  61 100 CALM      30.13S VSB 1/2
WATERTOWN      FOG       63  63 100 CALM      30.13R VSB 1/4
MONROE         MOCLDY    64  64 100 SE6       30.13S
JANESVILLE     CLOUDY    66  64  94 CALM      30.13R FOG
$$

WIZ051-052-058>065-066-070>072-280900-
SOUTHEAST WISCONSIN

CITY           SKY/WX    TMP DP  RH WIND       PRES   REMARKS
MILWAUKEE      MOCLDY    66  64  93 SE3       30.13R FOG
WAUKESHA       FOG       63  63 100 CALM      30.14R VSB 3/4
MILWAUKEE/TIMM CLEAR     64  63  94 CALM      30.13R
RACINE         PTCLDY    70  67  90 MISG      30.14R
BURLINGTON     FOG       62  62  99 CALM      30.13R VSB 1/4
KENOSHA        CLEAR     69  67  93 CALM      30.13R
FOND DU LAC    FOG       64  63  96 SW5       30.12S VSB 1/4
SHEBOYGAN      FOG       61  60  97 SW6       30.12R VSB 1
WEST BEND      MOCLDY    61  61 100 CALM      30.13R FOG
JUNEAU         FOG       64  64  99 W3        30.14R VSB<1/4
$$

LSZ147-162-280900-
LAKE SUPERIOR

STATION/POSITION TIME  TEMP    WIND        PRES    WAVE
                       AIR SEA DIR/SP/G            HT/PER
                 (UTC) (F)     (DEG/KT/KT) (MB)    (FT/S)
W MID LAKE BUOY  0750   64 67  280/  4/  6 1017.7R   1/ 4
DEVILS ISLAND    0800   62     220/  6/  8 1018.9R
PORT WING        0700   59     180/  2/  3 1018.6R
SAXON HARBOR     0700   63     190/  2/  3 1018.3R
$$

LMZ867-665-643>646-280900-
LAKE MICHIGAN

STATION/POSITION TIME  TEMP    WIND        PRES    WAVE
                       AIR SEA DIR/SP/G            HT/PER
                 (UTC) (F)     (DEG/KT/KT) (MB)    (FT/S)
CHAMBERS ISLAND  0700   66     240/  5/  8 1018.6R
S GREEN BAY BUOY 0800   65 71  270/ 12/ 14 1019.0R
N MID LAKE BUOY  0750   67 70  270/ 16/ 17 1017.8R   1/ 4
NORTHPORT PIER   0700   66     270/  5/  9 1018.3S
SISTER BAY       0707   67     300/ 16/ 19   N/A
KEWAUNEE LAKESHO 0700   64     300/  2/  5 1018.2F
SHEBOYGAN LAKESH 0800   64     240/  5/  5 1019.4R
PORT WASHINGTON  0740   63     300/  1/  3 1020.7R
ATWATER BUOY     0800   63      CALM  /  2   N/A
MILWAUKEE LAKESH 0710   63      50/  2/  3   N/A
S MID LAKE BUOY  0750   72 75  350/ 10/ 12 1019.0R   1
KENOSHA   LAKESH 0800   66      40/  1/  2 1020.0R
$$

TC  - TEMPERATURE IN CELSIUS
VSB - VISIBILITY IN STATUTE MILES
WCI - WIND CHILL INDEX
HX  - HEAT INDEX





USA.gov is the U.S. government's official web portal to all federal, state and local government web resources and services.